UCLSAT (42765 NORAD) Tracking and Keplerian Element Data

This shows tracking and keplerian element data for the satellite.

Feedback or suggestion? Click here.




ElementValue
Catalog42765
NameUCLSAT
Epoch Orbit7883
Epoch Day322.90398518
Epoch Year2018
RAAN20.128
Inclination97.3825
Eccentricity0.0010124
Argument of Perigee251.3252
Mean Anonmoly108.6885
Mean Motion15.22227572
Decay Rate1.316E-05
L11 42765U 17036A 18322.90398518 .00001316 00000-0 60220-4 0 9995
L22 42765 97.3825 20.1280 0010124 251.3252 108.6885 15.22227572 78838

Live tracking and technical data element details for UCLSAT (NORAD 42765). UCLSAT can be tracked NOW for your location showing map with azimuth and elevation plus other details from your city location.

Track the satellite on the map from your city or location and see movement details for azimuth, elevation, latitude, longitude, range, height, and movement on the map or in text.







IsCatalogInMostPopularTable: catalog: 42765, numindb: 130
Update: records affected: 1



GetName: 42765 UCLSAT

Hit Count: updated at: Mon, 19 Nov 2018 11:16:26 GMT